Location: Nied?wied?
(53.3665°N, 14.8184°E)
Time: 02:00:06
(UTC+00:00)

DMSP B5D2-2 - Pass Details

Date: 03 March 2021
Orbit: 789 x 807 km, 98.3° (Epoch: 11 April)

Event Time Altitude Azimuth Distance (km) Brightness Sun altitude
Rises 18:05:00 0° 18° (NNE) 3,316 7.2 -13.0°
Reaches altitude 10° 18:07:28 10° 25° (NNE) 2,378 6.4 -13.4°
Maximum altitude 18:12:29 44° 98° (E) 1,086 4.3 -14.1°
Drops below altitude 10° 18:17:26 10° 170° (S) 2,352 6.3 -14.9°
Sets 18:19:51 0° 177° (S) 3,276 7.1 -15.2°
